H1 CPF 2 NER 2022 12 29 10 363 01 glonass107 H2 0706501 9107 32393 2022 12 29 0 0 0 2023 1 1 23 45 0 900 1 1 0 0 0 1 H9 10 0 59942 0.00000 0 -18842362.867 17186881.035 247470.925 10 0 59942 900.00000 0 -18586347.735 17118986.824 3442287.369 10 0 59942 1800.00000 0 -18077778.111 16741253.763 6570179.691 10 0 59942 2700.00000 0 -17366600.995 16029413.983 9570307.526 10 0 59942 3600.00000 0 -16508253.385 14971208.318 12384291.098 10 0 59942 4500.00000 0 -15561195.297 13567135.574 14957354.329 10 0 59942 5400.00000 0 -14584331.134 11830674.964 17239398.274 10 0 59942 6300.00000 0 -13634428.937 9787970.640 19185983.290 10 0 59942 7200.00000 0 -12763647.156 7476990.142 20759200.197 10 0 59942 8100.00000 0 -12017273.938 4946190.769 21928413.099 10 0 59942 9000.00000 0 -11431774.778 2252748.627 22670859.194 10 0 59942 9900.00000 0 -11033231.244 -539576.303 22972093.753 10 0 59942 10800.00000 0 -10836236.720 -3362850.574 22826271.669 10 0 59942 11700.00000 0 -10843295.699 -6147553.079 22236260.179 10 0 59942 12600.00000 0 -11044751.715 -8825228.728 21213580.689 10 0 59942 13500.00000 0 -11419246.610 -11331099.770 19778180.991 10 0 59942 14400.00000 0 -11934691.222 -13606526.360 17958042.460 10 0 59942 15300.00000 0 -12549706.009 -15601214.192 15788630.075 10 0 59942 16200.00000 0 -13215470.097 -17275077.823 13312196.207 10 0 59942 17100.00000 0 -13877900.003 -18599682.787 10576951.971 10 0 59942 18000.00000 0 -14480065.314 -19559207.280 7636122.748 10 0 59942 18900.00000 0 -14964738.569 -20150884.563 4546906.673 10 0 59942 19800.00000 0 -15276970.987 -20384909.103 1369356.890 10 0 59942 20700.00000 0 -15366584.708 -20283812.040 -1834790.027 10 0 59942 21600.00000 0 -15190475.870 -19881333.984 -5003316.190 10 0 59942 22500.00000 0 -14714631.014 -19220844.125 -8074731.274 10 0 59942 23400.00000 0 -13915771.647 -18353373.624 -10989464.289 10 0 59942 24300.00000 0 -12782557.555 -17335347.141 -13691015.134 10 0 59942 25200.00000 0 -11316298.174 -16226108.707 -16127043.856 10 0 59942 26100.00000 0 -9531142.020 -15085346.286 -18250376.930 10 0 59942 27000.00000 0 -7453735.938 -13970523.176 -20019911.938 10 0 59942 27900.00000 0 -5122367.864 -12934423.621 -21401404.063 10 0 59942 28800.00000 0 -2585628.186 -12022914.868 -22368120.245 10 0 59942 29700.00000 0 99355.615 -11273018.547 -22901349.386 10 0 59942 30600.00000 0 2869038.969 -10711371.186 -22990759.654 10 0 59942 31500.00000 0 5655848.232 -10353137.497 -22634596.572 10 0 59942 32400.00000 0 8390739.320 -10201421.236 -21839718.395 10 0 59942 33300.00000 0 11005822.482 -10247197.925 -20621467.972 10 0 59942 34200.00000 0 13436945.846 -10469772.236 -19003383.124 10 0 59942 35100.00000 0 15626131.914 -10837741.080 -17016750.345 10 0 59942 36000.00000 0 17523766.930 -11310422.481 -14700009.392 10 0 59942 36900.00000 0 19090452.744 -11839690.838 -12098019.192 10 0 59942 37800.00000 0 20298444.557 -12372141.992 -9261198.106 10 0 59942 38700.00000 0 21132614.698 -12851497.436 -6244554.167 10 0 59942 39600.00000 0 21590902.048 -13221146.535 -3106623.379 10 0 59942 40500.00000 0 21684228.114 -13426719.385 91663.794 10 0 59942 41400.00000 0 21435883.055 -13418581.161 3288165.952 10 0 59942 42300.00000 0 20880407.232 -13154141.682 6420740.956 10 0 59942 43200.00000 0 20062015.322 -12599881.357 9428458.893 10 0 59942 44100.00000 0 19032629.442 -11733006.383 12252793.527 10 0 59942 45000.00000 0 17849604.437 -10542661.611 14838768.215 10 0 59942 45900.00000 0 16573241.664 -9030648.100 17136033.245 10 0 59942 46800.00000 0 15264196.577 -7211613.332 19099852.909 10 0 59942 47700.00000 0 13980889.964 -5112704.401 20691982.481 10 0 59942 48600.00000 0 12777032.398 -2772697.260 21881417.634 10 0 59942 49500.00000 0 11699366.586 -240637.164 22645001.496 10 0 59942 50400.00000 0 10785722.915 2425953.738 22967877.360 10 0 59942 51300.00000 0 10063470.053 5163227.590 22843778.332 10 0 59942 52200.00000 0 9548425.602 7903431.616 22275148.322 10 0 59942 53100.00000 0 9244272.282 10577497.858 21273092.181 10 0 59942 54000.00000 0 9142503.551 13117694.280 19857156.090 10 0 59942 54900.00000 0 9222900.187 15460226.999 18054942.632 10 0 59942 55800.00000 0 9454516.838 17547685.368 15901568.229 10 0 59942 56700.00000 0 9797135.928 19331228.382 13438973.742 10 0 59942 57600.00000 0 10203126.516 20772421.672 10715101.883 10 0 59942 58500.00000 0 10619628.605 21844649.041 7782957.929 10 0 59942 59400.00000 0 10990969.603 22534040.535 4699572.439 10 0 59942 60300.00000 0 11261209.918 22839879.393 1524886.686 10 0 59942 61200.00000 0 11376709.312 22774472.211 -1679416.853 10 0 59942 62100.00000 0 11288604.921 22362489.286 -4851115.675 10 0 59942 63000.00000 0 10955095.785 21639804.392 -7928656.350 10 0 59942 63900.00000 0 10343437.153 20651884.118 -10852347.636 10 0 59942 64800.00000 0 9431560.265 19451795.654 -13565514.497 10 0 59942 65700.00000 0 8209249.198 18097917.562 -16015590.862 10 0 59942 66600.00000 0 6678825.208 16651450.136 -18155130.378 10 0 59942 67500.00000 0 4855309.492 15173829.841 -19942716.405 10 0 59942 68400.00000 0 2766057.098 13724155.850 -21343754.617 10 0 59942 69300.00000 0 449876.574 12356735.770 -22331133.853 10 0 59942 70200.00000 0 -2044328.913 11118852.261 -22885743.554 10 0 59942 71100.00000 0 -4659343.734 10048842.835 -22996838.648 10 0 59942 72000.00000 0 -7331772.512 9174571.978 -22662245.480 10 0 59942 72900.00000 0 -9994436.509 8512358.451 -21888405.127 10 0 59942 73800.00000 0 -12578935.899 8066401.780 -20690253.194 10 0 59942 74700.00000 0 -15018273.112 7828731.433 -19090937.975 10 0 59942 75600.00000 0 -17249429.806 7779680.597 -17121381.650 10 0 59942 76500.00000 0 -19215791.554 7888864.716 -14819691.953 10 0 59942 77400.00000 0 -20869320.130 8116624.019 -12230434.589 10 0 59942 78300.00000 0 -22172383.395 8415869.748 -9403779.291 10 0 59942 79200.00000 0 -23099166.542 8734256.692 -6394535.035 10 0 59942 80100.00000 0 -23636605.498 9016590.671 -3261092.353 10 0 59942 81000.00000 0 -23784803.058 9207369.281 -64292.790 10 0 59942 81900.00000 0 -23556909.842 9253348.183 3133752.752 10 0 59942 82800.00000 0 -22978474.601 9106023.725 6270873.520 10 0 59942 83700.00000 0 -22086290.856 8723925.829 9286052.349 10 0 59942 84600.00000 0 -20926788.186 8074622.785 12120618.759 10 0 59942 85500.00000 0 -19554035.899 7136351.626 14719397.648 10 0 59943 0.00000 0 -18027443.461 5899203.582 17031790.294 10 0 59943 900.00000 0 -16409253.942 4365812.074 19012767.087 10 0 59943 1800.00000 0 -14761938.489 2551514.257 20623749.012 10 0 59943 2700.00000 0 -13145599.061 483975.431 21833364.475 10 0 59943 3600.00000 0 -11615490.996 -1797707.766 22618063.335 10 0 59943 4500.00000 0 -10219768.898 -4244389.641 22962577.347 10 0 59943 5400.00000 0 -8997550.643 -6798686.216 22860217.876 10 0 59943 6300.00000 0 -7977380.556 -9397139.628 22313005.187 10 0 59943 7200.00000 0 -7176155.784 -11972646.189 21331626.896 10 0 59943 8100.00000 0 -6598560.245 -14457047.172 19935226.547 10 0 59943 9000.00000 0 -6237028.909 -16783774.494 18151026.580 10 0 59943 9900.00000 0 -6072242.819 -18890440.976 16013793.212 10 0 59943 10800.00000 0 -6074132.688 -20721267.322 13565153.868 10 0 59943 11700.00000 0 -6203347.413 -22229244.713 10852780.715 10 0 59943 12600.00000 0 -6413124.221 -23377943.020 7929456.608 10 0 59943 13500.00000 0 -6651480.149 -24142889.637 4852042.077 10 0 59943 14400.00000 0 -6863631.063 -24512462.049 1680363.982 10 0 59943 15300.00000 0 -6994534.904 -24488257.753 -1523951.895 10 0 59943 16200.00000 0 -6991450.798 -24084927.259 -4698681.081 10 0 59943 17100.00000 0 -6806405.148 -23329478.495 -7782209.703 10 0 59943 18000.00000 0 -6398460.117 -22260083.047 -10714728.954 10 0 59943 18900.00000 0 -5735688.429 -20924435.561 -13439391.517 10 0 59943 19800.00000 0 -4796771.042 -19377735.962 -15903407.774 10 0 59943 20700.00000 0 -3572150.319 -17680379.720 -18059060.941 10 0 59943 21600.00000 0 -2064690.004 -15895453.072 -19864622.306 10 0 59943 22500.00000 0 -289813.942 -14086137.753 -21285149.826 10 0 59943 23400.00000 0 1724882.835 -12313133.155 -22293155.616 10 0 59943 24300.00000 0 3940535.288 -10632202.619 -22869130.561 10 0 59943 25200.00000 0 6308385.418 -9091945.063 -23001916.769 10 0 59943 26100.00000 0 8771579.212 -7731883.703 -22688921.347 10 0 59943 27000.00000 0 11267310.335 -6580950.294 -21936167.694 10 0 59943 27900.00000 0 13729223.210 -5656427.021 -20758183.264 10 0 59943 28800.00000 0 16089977.168 -4963389.354 -19177725.534 10 0 59943 29700.00000 0 18283866.635 -4494672.523 -17225350.718 10 0 59943 30600.00000 0 20249389.632 -4231362.656 -14938832.506 10 0 59943 31500.00000 0 21931658.454 -4143791.949 -12362440.985 10 0 59943 32400.00000 0 23284552.611 -4192996.103 -9546094.514 10 0 59943 33300.00000 0 24272524.240 -4332572.904 -6544399.935 10 0 59943 34200.00000 0 24871980.242 -4510863.729 -3415598.977 10 0 59943 35100.00000 0 25072182.809 -4673365.881 -220440.775 10 0 59943 36000.00000 0 24875629.912 -4765273.531 2978997.793 10 0 59943 36900.00000 0 24297899.029 -4734039.271 6120520.793 10 0 59943 37800.00000 0 23366960.070 -4531846.977 9143027.019 10 0 59943 38700.00000 0 22121985.821 -4117890.157 11987704.642 10 0 59943 39600.00000 0 20611709.645 -3460357.947 14599182.611 10 0 59943 40500.00000 0 18892399.354 -2538043.208 16926615.657 10 0 59943 41400.00000 0 17025532.521 -1341503.014 18924681.079 10 0 59943 42300.00000 0 15075271.137 126279.072 20554467.235 10 0 59943 43200.00000 0 13105841.934 1849758.536 21784236.068 10 0 59943 44100.00000 0 11178932.554 3801230.460 22590044.578 10 0 59943 45000.00000 0 9351212.980 5941749.551 22956212.990 10 0 59943 45900.00000 0 7672086.080 8222532.205 22875630.559 10 0 59943 46800.00000 0 6181761.293 10586782.809 22349893.137 10 0 59943 47700.00000 0 4909731.707 12971868.433 21389269.949 10 0 59943 48600.00000 0 3873717.578 15311751.474 20012500.380 10 0 59943 49500.00000 0 3079119.506 17539578.859 18246424.863 10 0 59943 50400.00000 0 2519003.031 19590319.665 16125457.238 10 0 59943 51300.00000 0 2174613.750 21403341.015 13690909.079 10 0 59943 52200.00000 0 2016399.740 22924814.641 10990179.357 10 0 59943 53100.00000 0 2005496.580 24109853.507 8075825.685 10 0 59943 54000.00000 0 2095610.732 24924289.392 5004535.620 10 0 59943 54900.00000 0 2235220.242 25346017.429 1836018.587 10 0 59943 55800.00000 0 2369998.472 25365851.901 -1368159.365 10 0 59943 56700.00000 0 2445357.256 24987858.328 -4545774.772 10 0 59943 57600.00000 0 2409001.096 24229148.876 -7635156.158 10 0 59943 58500.00000 0 2213383.824 23119150.777 -10576379.765 10 0 59943 59400.00000 0 1817963.587 21698379.445 -13312428.331 10 0 59943 60300.00000 0 1191160.769 20016768.529 -15790290.709 10 0 59943 61200.00000 0 311936.264 18131627.457 -17961981.369 10 0 59943 62100.00000 0 -829076.434 16105312.148 -19785460.882 10 0 59943 63000.00000 0 -2228933.076 14002706.025 -21225440.518 10 0 59943 63900.00000 0 -3872261.574 11888616.025 -22254056.388 10 0 59943 64800.00000 0 -5731671.547 9825191.231 -22851401.210 10 0 59943 65700.00000 0 -7768674.369 7869470.508 -23005904.315 10 0 59943 66600.00000 0 -9935076.527 6071159.977 -22714553.232 10 0 59943 67500.00000 0 -12174789.723 4470731.430 -21982952.920 10 0 59943 68400.00000 0 -14425983.978 3097919.538 -20825221.472 10 0 59943 69300.00000 0 -16623495.738 1970679.369 -19263723.895 10 0 59943 70200.00000 0 -18701392.277 1094646.726 -17328648.373 10 0 59943 71100.00000 0 -20595586.962 463123.194 -15057432.153 10 0 59943 72000.00000 0 -22246397.278 57586.164 -12494047.050 10 0 59943 72900.00000 0 -23600939.507 -151297.783 -9688157.247 10 0 59943 73800.00000 0 -24615260.173 -202198.745 -6694164.580 10 0 59943 74700.00000 0 -25256114.792 -141250.664 -3570159.107 10 0 59943 75600.00000 0 -25502318.859 -19858.860 -376794.745 10 0 59943 76500.00000 0 -25345613.584 107719.244 2823888.393 10 0 59943 77400.00000 0 -24791009.062 186917.476 5969671.832 10 0 59943 78300.00000 0 -23856589.522 165419.975 8999372.859 10 0 59943 79200.00000 0 -22572787.970 -4373.332 11854040.690 10 0 59943 80100.00000 0 -20981160.047 -363080.470 14478110.532 10 0 59943 81000.00000 0 -19132708.160 -942367.628 16820492.363 10 0 59943 81900.00000 0 -17085826.021 -1763360.756 18835572.485 10 0 59943 82800.00000 0 -14903949.846 -2835507.125 20484107.740 10 0 59943 83700.00000 0 -12653014.798 -4155936.507 21733994.548 10 0 59943 84600.00000 0 -10398823.363 -5709350.345 22560897.570 10 0 59943 85500.00000 0 -8204435.999 -7468444.853 22948725.605 10 0 59944 0.00000 0 -6127693.398 -9394851.288 22889945.522 10 0 59944 900.00000 0 -4218972.678 -11440555.890 22385728.091 10 0 59944 1800.00000 0 -2519273.726 -13549738.041 21445923.148 10 0 59944 2700.00000 0 -1058711.273 -15660953.557 20088864.648 10 0 59944 3600.00000 0 144522.373 -17709569.440 18341009.485 10 0 59944 4500.00000 0 1084682.832 -19630349.213 16236417.356 10 0 59944 5400.00000 0 1768466.733 -21360080.432 13816081.989 10 0 59944 6300.00000 0 2214474.338 -22840134.299 11127126.993 10 0 59944 7200.00000 0 2452166.064 -24018850.007 8221882.409 10 0 59944 8100.00000 0 2520358.708 -24853643.945 5156860.376 10 0 59944 9000.00000 0 2465326.524 -25312755.474 1991650.367 10 0 59944 9900.00000 0 2338588.928 -25376556.351 -1212243.853 10 0 59944 10800.00000 0 2194479.662 -25038369.400 -4392602.373 10 0 59944 11700.00000 0 2087601.301 -24304762.771 -7487698.655 10 0 59944 12600.00000 0 2070273.466 -23195308.192 -10437496.486 10 0 59944 13500.00000 0 2190083.095 -21741814.193 -13184811.106 10 0 59944 14400.00000 0 2487640.462 -19987067.080 -15676412.170 10 0 59944 15300.00000 0 2994635.623 -17983132.922 -17864047.574 10 0 59944 16200.00000 0 3732277.146 -15789291.730 -19705369.110 10 0 59944 17100.00000 0 4710178.790 -13469689.928 -21164742.986 10 0 59944 18000.00000 0 5925740.972 -11090808.569 -22213930.565 10 0 59944 18900.00000 0 7364053.314 -8718851.841 -22832627.238 10 0 59944 19800.00000 0 8998323.033 -6417163.333 -23008849.975 10 0 59944 20700.00000 0 10790812.160 -4243776.216 -22739166.716 10 0 59944 21600.00000 0 12694245.740 -2249197.629 -22028763.573 10 0 59944 22500.00000 0 14653633.740 -474517.920 -20891348.501 10 0 59944 23400.00000 0 16608432.189 1050077.872 -19348892.925 10 0 59944 24300.00000 0 18494954.999 2306335.515 -17431215.544 10 0 59944 25200.00000 0 20248937.230 3288452.172 -15175415.365 10 0 59944 26100.00000 0 21808143.816 4003070.928 -12625163.807 10 0 59944 27000.00000 0 23114915.489 4468749.915 -9829868.404 10 0 59944 27900.00000 0 24118545.656 4714928.522 -6843723.212 10 0 59944 28800.00000 0 24777388.477 4780434.245 -3724663.587 10 0 59944 29700.00000 0 25060609.208 4711593.223 -533245.022 10 0 59944 30600.00000 0 24949502.430 4560024.380 2668532.404 10 0 59944 31500.00000 0 24438321.670 4380210.732 5818430.892 10 0 59944 32400.00000 0 23534584.385 4226951.183 8855189.288 10 0 59944 33300.00000 0 22258838.263 4152801.469 11719720.668 10 0 59944 34200.00000 0 20643897.659 4205613.596 14356269.019 10 0 59944 35100.00000 0 18733581.392 4426279.132 16713501.740 10 0 59944 36000.00000 0 16581004.261 4846773.174 18745515.987 10 0 59944 36900.00000 0 14246493.594 5488583.037 20412738.577 10 0 59944 37800.00000 0 11795217.954 6361589.418 21682701.558 10 0 59944 38700.00000 0 9294627.153 7463448.544 22530678.068 10 0 59944 39600.00000 0 6811810.715 8779502.540 22940165.939 10 0 59944 40500.00000 0 4410885.066 10283222.793 22903209.694 10 0 59944 41400.00000 0 2150518.414 11937168.581 22420554.721 10 0 59944 42300.00000 0 81696.360 13694421.300 21501630.756 10 0 59944 43200.00000 0 -1754179.084 15500434.556 20164365.151 10 0 59944 44100.00000 0 -3326778.540 17295222.757 18434829.670 10 0 59944 45000.00000 0 -4617861.195 19015796.408 16346727.902 10 0 59944 45900.00000 0 -5621776.573 20598741.916 13940733.443 10 0 59944 46800.00000 0 -6345432.762 21982837.463 11263691.980 10 0 59944 47700.00000 0 -6807734.216 23111594.940 8367703.219 10 0 59944 48600.00000 0 -7038514.717 23935621.032 5309100.982 10 0 59944 49500.00000 0 -7077012.339 24414698.236 2147351.791 10 0 59944 50400.00000 0 -6969952.505 24519498.387 -1056105.910 10 0 59944 51300.00000 0 -6769321.676 24232856.986 -4239058.782 10 0 59944 52200.00000 0 -6529927.059 23550555.131 -7339728.155 10 0 59944 53100.00000 0 -6306846.432 22481576.773 -10297968.137 10 0 59944 54000.00000 0 -6152876.515 21047831.021 -13056429.018 10 0 59944 54900.00000 0 -6116087.963 19283351.643 -15561663.543 10 0 59944 55800.00000 0 -6237590.189 17233007.673 -17765155.012 10 0 59944 56700.00000 0 -6549600.100 14950779.129 -19624248.101 10 0 59944 57600.00000 0 -7073895.831 12497669.630 -21102965.303 10 0 59944 58500.00000 0 -7820720.283 9939342.447 -22172694.251 10 0 59944 59400.00000 0 -8788180.491 7343577.504 -22812733.699 10 0 59944 60300.00000 0 -9962168.270 4777653.856 -23010688.582 10 0 59944 61200.00000 0 -11316805.989 2305765.063 -22762707.196 10 0 59944 62100.00000 0 -12815399.728 -13426.774 -22073556.316 10 0 59944 63000.00000 0 -14411861.174 -2128998.340 -20956532.824 10 0 59944 63900.00000 0 -16052540.157 -3999643.474 -19433213.150 10 0 59944 64800.00000 0 -17678392.717 -5595145.810 -17533044.668 10 0 59944 65700.00000 0 -19227395.475 -6897385.438 -15292785.919 10 0 59944 66600.00000 0 -20637106.427 -7900838.315 -12755805.382 10 0 59944 67500.00000 0 -21847265.856 -8612548.154 -9971251.168 10 0 59944 68400.00000 0 -22802328.768 -9051572.262 -6993106.642 10 0 59944 69300.00000 0 -23453822.597 -9247924.789 -3879149.468 10 0 59944 70200.00000 0 -23762430.691 -9241061.961 -689833.707 10 0 59944 71100.00000 0 -23699713.171 -9077973.345 2512883.576 10 0 59944 72000.00000 0 -23249391.598 -8810959.951 5666748.203 10 0 59944 72900.00000 0 -22408142.085 -8495193.563 8710423.425 10 0 59944 73800.00000 0 -21185862.032 -8186161.180 11584688.910 10 0 59944 74700.00000 0 -19605397.963 -7937103.510 14233599.962 10 0 59944 75600.00000 0 -17701744.658 -7796556.974 16605583.683 10 0 59944 76500.00000 0 -15520748.226 -7806104.285 18654450.028 10 0 59944 77400.00000 0 -13117366.776 -7998429.909 20340297.350 10 0 59944 78300.00000 0 -10553561.036 -8395763.711 21630294.448 10 0 59944 79200.00000 0 -7895902.809 -9008779.615 22499323.586 10 0 59944 80100.00000 0 -5213001.083 -9835996.692 22930471.826 10 0 59944 81000.00000 0 -2572853.092 -10863708.775 22915361.120 10 0 59944 81900.00000 0 -40230.613 -12066446.259 22454310.829 10 0 59944 82800.00000 0 2325789.679 -13407951.151 21556329.593 10 0 59944 83700.00000 0 4474049.322 -14842624.695 20238936.875 10 0 59944 84600.00000 0 6363192.625 -16317386.876 18527817.760 10 0 59944 85500.00000 0 7963134.854 -17773869.591 16456317.920 10 0 59945 0.00000 0 9256053.887 -19150851.020 14064788.997 10 0 59945 900.00000 0 10236865.974 -20386829.321 11399796.044 10 0 59945 1800.00000 0 10913165.665 -21422625.202 8513206.151 10 0 59945 2700.00000 0 11304636.658 -22203906.074 5461172.143 10 0 59945 3600.00000 0 11441958.476 -22683523.424 2303034.806 10 0 59945 4500.00000 0 11365257.666 -22823565.627 -899835.579 10 0 59945 5400.00000 0 11122170.473 -22597039.703 -4085235.086 10 0 59945 6300.00000 0 10765600.278 -21989111.370 -7191335.669 10 0 59945 7200.00000 0 10351265.694 -20997851.534 -10157884.412 10 0 59945 8100.00000 0 9935143.692 -19634458.160 -12927369.147 10 0 59945 9000.00000 0 9570916.185 -17922944.513 -15446128.006 10 0 59945 9900.00000 0 9307527.847 -15899307.054 -17665381.770 10 0 59945 10800.00000 0 9186957.994 -13610207.809 -19542169.787 10 0 59945 11700.00000 0 9242299.911 -11111225.935 -21040172.303 10 0 59945 12600.00000 0 9496228.003 -8464750.884 -22130404.314 10 0 59945 13500.00000 0 9959916.763 -5737603.925 -22791768.632 10 0 59945 14400.00000 0 10632456.755 -2998485.676 -23011458.441 10 0 59945 15300.00000 0 11500792.159 -315354.280 -22785202.268 10 0 59945 16200.00000 0 12540182.944 2247158.580 -22117347.058 10 0 59945 17100.00000 0 13715173.084 4630188.268 -21020777.773 10 0 59945 18000.00000 0 14981025.300 6782834.532 -19516674.689 10 0 59945 18900.00000 0 16285563.498 8664025.771 -17634112.393 10 0 59945 19800.00000 0 17571347.019 10243973.844 -15409507.204 10 0 59945 20700.00000 0 18778086.724 11505159.627 -12885922.613 10 0 59945 21600.00000 0 19845202.540 12442808.861 -10112244.981 10 0 59945 22500.00000 0 20714415.658 13064838.746 -7142244.385 10 0 59945 23400.00000 0 21332266.613 13391277.689 -4033537.978 10 0 59945 24300.00000 0 21652453.046 13453182.742 -846475.416 10 0 59945 25200.00000 0 21637887.984 13291100.382 2357032.298 10 0 59945 26100.00000 0 21262390.866 12953135.712 5514717.617 10 0 59945 27000.00000 0 20511938.695 12492711.904 8565171.101 10 0 59945 27900.00000 0 19385423.041 11966115.054 11449041.705 10 0 59945 28800.00000 0 17894879.492 11429928.922 14110198.504 10 0 59945 29700.00000 0 16065178.338 10938468.841 16496830.495 10 0 59945 30600.00000 0 13933188.156 10541324.240 18562462.329 10 0 59945 31500.00000 0 11546446.275 10281114.603 20266865.514 10 0 59945 32400.00000 0 8961390.969 10191554.668 21576846.918 10 0 59945 33300.00000 0 6241228.648 10295911.374 22466898.960 10 0 59945 34200.00000 0 3453524.829 10605918.468 22919698.618 10 0 59945 35100.00000 0 667619.063 11121195.107 22926445.613 10 0 59945 36000.00000 0 -2048028.627 11829193.445 22487033.206 10 0 59945 36900.00000 0 -4628449.410 12705677.641 21610048.431 10 0 59945 37800.00000 0 -7014626.961 13715714.269 20312601.900 10 0 59945 38700.00000 0 -9155706.414 14815132.377 18619990.598 10 0 59945 39600.00000 0 -11010859.466 15952391.524 16565200.445 10 0 59945 40500.00000 0 -12550728.807 17070778.826 14188258.483 10 0 59945 41400.00000 0 -13758392.801 18110842.081 11535447.514 10 0 59945 42300.00000 0 -14629811.427 19012955.984 8658398.928 10 0 59945 43200.00000 0 -15173736.595 19719912.805 5613081.761 10 0 59945 44100.00000 0 -15411092.416 20179427.925 2458708.191 10 0 59945 45000.00000 0 -15373853.367 20346454.218 -743422.548 10 0 59945 45900.00000 0 -15103469.459 20185207.572 -3931118.805 10 0 59945 46800.00000 0 -14648906.435 19670818.055 -7042505.972 10 0 59945 47700.00000 0 -14064385.047 18790537.315 -10017226.807 10 0 59945 48600.00000 0 -13406915.816 17544451.517 -12797609.238 10 0 59945 49500.00000 0 -12733733.903 15945669.990 -15329779.137 10 0 59945 50400.00000 0 -12099742.451 14019981.778 -17564696.859 10 0 59945 51300.00000 0 -11555071.951 11804994.355 -19459098.247 10 0 59945 52200.00000 0 -11142857.930 9348790.134 -20976322.818 10 0 59945 53100.00000 0 -10897329.761 6708156.260 -22087014.142 10 0 59945 54000.00000 0 -10842290.209 3946460.446 -22769679.966 10 0 59945 54900.00000 0 -10990048.917 1131259.903 -23011102.268 10 0 59945 55800.00000 0 -11340854.182 -1668258.698 -22806589.981 10 0 59945 56700.00000 0 -11882846.743 -4383903.672 -22160070.005 10 0 59945 57600.00000 0 -12592537.778 -6951059.991 -21084014.750 10 0 59945 58500.00000 0 -13435791.651 -9311122.632 -19599207.283 10 0 59945 59400.00000 0 -14369273.080 -11413682.041 -17734347.932 10 0 59945 60300.00000 0 -15342299.060 -13218372.193 -15525508.951 10 0 59945 61200.00000 0 -16299018.854 -14696305.141 -13015446.664 10 0 59945 62100.00000 0 -17180831.409 -15831032.950 -10252783.258 10 0 59945 63000.00000 0 -17928939.236 -16618997.225 -7291072.895 10 0 59945 63900.00000 0 -18486931.557 -17069447.501 -4187769.474 10 0 59945 64800.00000 0 -18803287.802 -17203832.020 -1003115.417 10 0 59945 65700.00000 0 -18833695.353 -17054686.480 2201027.220 10 0 59945 66600.00000 0 -18543082.792 -16664067.580 5362380.426 10 0 59945 67500.00000 0 -17907281.589 -16081597.562 8419464.968 10 0 59945 68400.00000 0 -16914244.537 -15362202.615 11312801.944 10 0 59945 69300.00000 0 -15564767.921 -14563641.107 13986076.952 10 0 59945 70200.00000 0 -13872685.282 -13743926.736 16387243.443 10 0 59945 71100.00000 0 -11864522.972 -12958756.176 18469543.068 10 0 59945 72000.00000 0 -9578630.567 -12259050.663 20192422.455 10 0 59945 72900.00000 0 -7063821.393 -11688716.092 21522328.114 10 0 59945 73800.00000 0 -4377579.024 -11282716.790 22433363.749 10 0 59945 74700.00000 0 -1583904.136 -11065544.794 22907796.939 10 0 59945 75600.00000 0 1249109.001 -11050149.517 22936405.408 10 0 59945 76500.00000 0 4051865.720 -11237373.112 22518656.140 10 0 59945 77400.00000 0 6755925.983 -11615915.339 21662714.003 10 0 59945 78300.00000 0 9296610.996 -12162829.266 20385279.838 10 0 59945 79200.00000 0 11615453.186 -12844526.608 18711261.296 10 0 59945 80100.00000 0 13662387.892 -13618249.897 16673282.989 10 0 59945 81000.00000 0 15397596.059 -14433948.888 14311045.710 10 0 59945 81900.00000 0 16792921.992 -15236481.463 11670547.397 10 0 59945 82800.00000 0 17832807.985 -15968045.504 8803181.440 10 0 59945 83700.00000 0 18514708.190 -16570738.455 5764730.297 10 0 59945 84600.00000 0 18848966.015 -16989135.935 2614274.529 10 0 59945 85500.00000 0 18858161.925 -17172779.984 -586960.842 99